Hourly Data Report for August 10, 2017

All times are specified in Local Standard Time (LST). Add 1 hour to adjust for Daylight Saving Time where and when it is observed.

ST. STEPHEN
NEW BRUNSWICK

45°12'36.600" N
67°15'10.300" W
26.10 m
8104935
71607
WSS

Download Data

Hourly Data (August 2017)
Hourly Data Report for August 10, 2017
Temp Definition
°C
Dew Point Temp Definition
°C
Rel Hum Definition
%
Wind Dir Definition
10's deg

Wind Spd Definition
km/h
Visibility Definition
km
Stn Press Definition
kPa
Hmdx Definition


Wind Chill Definition


Weather Definition


TIME
00:00 13.0 12.0 93   0   101.78     LegendNANA
01:00 12.2 11.4 95   0   101.80     LegendNANA
02:00 11.8 11.1 95 0 1   101.82     LegendNANA
03:00 12.0 11.3 95   0   101.84     LegendNANA
04:00 11.2 10.5 95   0   101.86     LegendNANA
05:00 10.4 9.7 96   0   101.89     LegendNANA
06:00 10.2 9.6 96   0   101.92     LegendNANA
07:00 14.2 13.0 92 30 1   101.99     LegendNANA
08:00 18.2 14.4 78 27 3   102.04     LegendNANA
09:00 21.0 13.4 62 26 7   102.05     LegendNANA
10:00 23.1 12.8 52 27 10   102.03 26   LegendNANA
11:00 24.1 11.4 45 26 9   102.01 26   LegendNANA
12:00 25.3 10.8 40 23 13   101.94 27   LegendNANA
13:00 25.9 11.1 40 26 15   101.92 28   LegendNANA
14:00 27.6 12.7 40 26 10   101.91 30   LegendNANA
15:00 27.4 12.6 40 28 11   101.87 30   LegendNANA
16:00 28.0 13.4 41 23 6   101.82 31   LegendNANA
17:00 27.2 14.3 45 22 13   101.81 31   LegendNANA
18:00 25.2 15.0 53 22 12   101.84 29   LegendNANA
19:00 24.5 15.4 57 22 7   101.86 29   LegendNANA
20:00 22.5 15.7 66 23 4   101.89 27   LegendNANA
21:00 20.3 13.7 66 19 6   101.94     LegendNANA
22:00 17.7 13.9 79   0   101.95     LegendNANA
23:00 16.2 13.9 86 3 2   101.96     LegendNANA

Notes on Data Quality.

Legend

  • E = Estimated
  • M = Missing
  • NA = Not Available
  • ‡ = Partner data that is not subject to review by the National Climate Archives
Date modified: